Вернуться в каталог

STARLINK-30807

АктивенСвязьVLEO
NORAD 58192·PAYLOAD·🇺🇸 United States

Запущен Oct 30, 2023 с Cape Canaveral Space Force Station

Loading…

Ближайшие Пролёты (ближайшие 24 часа)

TLE

СвежийSource: CelesTrak SupGP

Эпоха: Sep 14, 2026, 22:40 UTC

1 58192C 23167T   26257.94493056 -.00066153  00000+0 -23963-2 0  2570
2 58192  43.0026 154.6238 0001299 272.7297 273.5891 15.27608715    16

Отслеживайте STARLINK-30807 в реальном времени с AllMySat

Download on the App Store